When you browse on this site, cookies collect data to enhance your experience and personalize the content and advertising you see.
Visit our Privacy Policy to learn more. By continuing to use the site, you agree to this use of cookies and data.
  • In Hungary
  • List of Countries
  • For 7 days
  • Water Temperature
  • Weather Map
  • News
  • Weather Widgets
  • user-avatar
    Login

    Hourly Weather Jhunjhunun

    Today, 12 November, Tuesday

    Time Temperature Precipitation Wind Pressure Humidity
    00:00 +21°C° 0 mm 2 mps 731 mmHg 23%
    01:00 +21°C° 0 mm 2 mps 730 mmHg 24%
    02:00 +22°C° 0 mm 1 mps 730 mmHg 24%
    03:00 +21°C° 0 mm 1 mps 730 mmHg 25%
    04:00 +21°C° 0 mm 1 mps 730 mmHg 25%
    05:00 +21°C° 0 mm 1 mps 730 mmHg 27%
    06:00 +22°C° 0 mm 1 mps 731 mmHg 26%
    07:00 +23°C° 0 mm 1 mps 731 mmHg 25%
    08:00 +24°C° 0 mm 1 mps 732 mmHg 24%
    09:00 +26°C° 0 mm 1 mps 732 mmHg 23%
    10:00 +28°C° 0 mm 1 mps 732 mmHg 22%
    11:00 +27°C° 0 mm 0 mps 732 mmHg 21%
    12:00 +30°C° 0 mm 1 mps 732 mmHg 21%
    13:00 +31°C° 0 mm 2 mps 731 mmHg 21%
    14:00 +31°C° 0 mm 3 mps 731 mmHg 21%
    15:00 +30°C° 0 mm 3 mps 731 mmHg 21%
    16:00 +30°C° 0 mm 3 mps 730 mmHg 20%
    17:00 +29°C° 0 mm 3 mps 730 mmHg 20%
    18:00 +28°C° 0 mm 3 mps 731 mmHg 20%
    19:00 +27°C° 0 mm 3 mps 731 mmHg 20%
    20:00 +26°C° 0 mm 3 mps 732 mmHg 20%
    21:00 +26°C° 0 mm 2 mps 732 mmHg 20%
    22:00 +26°C° 0 mm 2 mps 732 mmHg 20%
    23:00 +26°C° 0 mm 2 mps 732 mmHg 21%

    Tomorrow, 13 November, Wednesday

    Time Temperature Precipitation Wind Pressure Humidity
    00:00 +25°C° 0 mm 2 mps 732 mmHg 21%
    01:00 +25°C° 0 mm 2 mps 732 mmHg 22%
    02:00 +24°C° 0 mm 2 mps 732 mmHg 23%
    03:00 +24°C° 0 mm 2 mps 732 mmHg 23%
    04:00 +23°C° 0 mm 2 mps 732 mmHg 24%
    05:00 +23°C° 0 mm 2 mps 732 mmHg 25%
    06:00 +24°C° 0 mm 2 mps 732 mmHg 24%
    07:00 +24°C° 0 mm 2 mps 733 mmHg 23%
    08:00 +25°C° 0 mm 2 mps 733 mmHg 22%
    09:00 +27°C° 0 mm 1 mps 734 mmHg 21%
    10:00 +29°C° 0 mm 1 mps 734 mmHg 20%
    11:00 +30°C° 0 mm 1 mps 734 mmHg 19%
    12:00 +31°C° 0 mm 1 mps 733 mmHg 20%
    13:00 +31°C° 0 mm 1 mps 733 mmHg 21%
    14:00 +32°C° 0 mm 1 mps 732 mmHg 22%
    15:00 +31°C° 0 mm 2 mps 732 mmHg 23%
    16:00 +30°C° 0 mm 3 mps 732 mmHg 24%
    17:00 +29°C° 0 mm 3 mps 732 mmHg 25%
    18:00 +28°C° 0 mm 3 mps 732 mmHg 26%
    19:00 +28°C° 0 mm 3 mps 733 mmHg 27%
    20:00 +27°C° 0 mm 3 mps 733 mmHg 27%
    21:00 +26°C° 0 mm 3 mps 733 mmHg 28%
    22:00 +25°C° 0 mm 2 mps 733 mmHg 29%
    23:00 +25°C° 0 mm 2 mps 733 mmHg 30%

    Day after tomorrow, 14 November, Thursday

    Time Temperature Precipitation Wind Pressure Humidity
    00:00 +25°C° 0 mm 2 mps 733 mmHg 30%
    01:00 +24°C° 0 mm 2 mps 733 mmHg 31%
    02:00 +24°C° 0 mm 2 mps 732 mmHg 31%
    03:00 +24°C° 0 mm 2 mps 732 mmHg 31%
    04:00 +24°C° 0 mm 2 mps 732 mmHg 31%
    05:00 +24°C° 0 mm 2 mps 732 mmHg 32%
    06:00 +24°C° 0 mm 2 mps 733 mmHg 31%
    07:00 +25°C° 0 mm 3 mps 733 mmHg 30%
    08:00 +26°C° 0 mm 3 mps 734 mmHg 29%
    09:00 +27°C° 0 mm 3 mps 734 mmHg 27%
    10:00 +29°C° 0 mm 2 mps 734 mmHg 25%
    11:00 +31°C° 0 mm 2 mps 735 mmHg 23%
    12:00 +31°C° 0 mm 2 mps 734 mmHg 23%
    13:00 +31°C° 0 mm 2 mps 733 mmHg 23%
    14:00 +31°C° 0 mm 2 mps 732 mmHg 23%
    15:00 +30°C° 0 mm 2 mps 732 mmHg 25%
    16:00 +30°C° 0 mm 2 mps 732 mmHg 27%
    17:00 +29°C° 0 mm 2 mps 732 mmHg 29%
    18:00 +28°C° 0 mm 2 mps 733 mmHg 29%
    19:00 +27°C° 0 mm 2 mps 733 mmHg 30%
    20:00 +27°C° 0 mm 2 mps 733 mmHg 30%
    21:00 +26°C° 0 mm 3 mps 733 mmHg 31%
    22:00 +25°C° 0 mm 4 mps 733 mmHg 33%
    23:00 +25°C° 0 mm 5 mps 733 mmHg 34%

    15 November, Friday

    Time Temperature Precipitation Wind Pressure Humidity
    00:00 +23°C° 0 mm 4 mps 733 mmHg 37%
    01:00 +22°C° 0 mm 3 mps 732 mmHg 39%
    02:00 +21°C° 0 mm 3 mps 732 mmHg 41%
    03:00 +21°C° 0 mm 2 mps 731 mmHg 44%
    04:00 +20°C° 0 mm 2 mps 731 mmHg 46%
    05:00 +20°C° 0 mm 2 mps 731 mmHg 48%
    06:00 +21°C° 0 mm 2 mps 732 mmHg 45%
    07:00 +23°C° 0 mm 2 mps 733 mmHg 42%
    08:00 +24°C° 0 mm 2 mps 733 mmHg 39%
    09:00 +25°C° 0 mm 3 mps 733 mmHg 35%
    10:00 +27°C° 0 mm 4 mps 734 mmHg 31%
    11:00 +28°C° 0 mm 5 mps 734 mmHg 27%
    12:00 +29°C° 0 mm 5 mps 733 mmHg 28%
    13:00 +30°C° 0 mm 5 mps 732 mmHg 29%
    14:00 +30°C° 0 mm 5 mps 731 mmHg 30%
    15:00 +29°C° 0 mm 5 mps 731 mmHg 33%
    16:00 +28°C° 0 mm 5 mps 731 mmHg 36%
    17:00 +27°C° 0 mm 4 mps 731 mmHg 39%
    18:00 +26°C° 0 mm 4 mps 731 mmHg 41%
    19:00 +26°C° 0 mm 3 mps 732 mmHg 43%
    20:00 +25°C° 0 mm 3 mps 732 mmHg 45%
    21:00 +24°C° 0 mm 3 mps 732 mmHg 48%
    22:00 +22°C° 0 mm 3 mps 732 mmHg 52%
    23:00 +22°C° 0 mm 3 mps 732 mmHg 55%

    16 November, Saturday

    Time Temperature Precipitation Wind Pressure Humidity
    00:00 +21°C° 0 mm 2 mps 732 mmHg 57%
    01:00 +22°C° 0 mm 1 mps 731 mmHg 59%
    02:00 +21°C° 0 mm 1 mps 731 mmHg 61%
    03:00 +21°C° 0 mm 1 mps 731 mmHg 62%
    04:00 +21°C° 0 mm 1 mps 731 mmHg 62%
    05:00 +20°C° 0 mm 1 mps 731 mmHg 63%
    06:00 +21°C° 0 mm 1 mps 732 mmHg 59%
    07:00 +20°C° 0 mm 0 mps 732 mmHg 54%
    08:00 +22°C° 0 mm 0 mps 733 mmHg 50%
    09:00 +25°C° 0 mm 1 mps 733 mmHg 45%
    10:00 +27°C° 0 mm 2 mps 733 mmHg 40%
    11:00 +29°C° 0 mm 3 mps 733 mmHg 34%
    12:00 +29°C° 0 mm 3 mps 732 mmHg 32%
    13:00 +30°C° 0 mm 3 mps 732 mmHg 30%
    14:00 +32°C° 0 mm 4 mps 731 mmHg 27%
    15:00 +30°C° 0 mm 4 mps 731 mmHg 29%
    16:00 +29°C° 0 mm 3 mps 731 mmHg 31%
    17:00 +28°C° 0 mm 3 mps 731 mmHg 32%
    18:00 +27°C° 0 mm 3 mps 731 mmHg 34%
    19:00 +26°C° 0 mm 3 mps 732 mmHg 36%
    20:00 +25°C° 0 mm 2 mps 732 mmHg 37%
    21:00 +25°C° 0 mm 2 mps 732 mmHg 39%
    22:00 +24°C° 0 mm 3 mps 732 mmHg 42%
    23:00 +24°C° 0 mm 3 mps 732 mmHg 44%

    17 November, Sunday

    Time Temperature Precipitation Wind Pressure Humidity
    00:00 +22°C° 0 mm 3 mps 732 mmHg 46%
    01:00 +23°C° 0 mm 2 mps 732 mmHg 48%
    02:00 +21°C° 0 mm 2 mps 732 mmHg 51%
    03:00 +21°C° 0 mm 2 mps 732 mmHg 53%
    04:00 +20°C° 0 mm 2 mps 731 mmHg 55%
    05:00 +20°C° 0 mm 2 mps 731 mmHg 58%
    06:00 +21°C° 0 mm 2 mps 732 mmHg 55%
    07:00 +23°C° 0 mm 1 mps 733 mmHg 53%
    08:00 +23°C° 0 mm 1 mps 733 mmHg 50%
    09:00 +25°C° 0 mm 2 mps 733 mmHg 45%
    10:00 +27°C° 0 mm 3 mps 733 mmHg 40%
    11:00 +29°C° 0 mm 4 mps 733 mmHg 34%
    12:00 +30°C° 0 mm 4 mps 733 mmHg 32%
    13:00 +30°C° 0 mm 5 mps 732 mmHg 30%
    14:00 +32°C° 0 mm 5 mps 732 mmHg 28%
    15:00 +30°C° 0 mm 5 mps 731 mmHg 29%
    16:00 +29°C° 0 mm 4 mps 731 mmHg 30%
    17:00 +28°C° 0 mm 3 mps 731 mmHg 31%
    18:00 +27°C° 0 mm 3 mps 731 mmHg 33%
    19:00 +26°C° 0 mm 3 mps 731 mmHg 35%
    20:00 +25°C° 0 mm 3 mps 732 mmHg 38%
    21:00 +25°C° 0 mm 3 mps 732 mmHg 39%
    22:00 +24°C° 0 mm 3 mps 732 mmHg 41%
    23:00 +22°C° 0 mm 3 mps 732 mmHg 42%
    Show more